User: anonymous   Login
Location: Unspecified
(0.0000°N, 0.0000°E)
Time: 21:34:46
(UTC+00:00)
Language:

USA 286 - Orbit

View from above orbital plane
View from above orbital plane
View from above satellite
View from above satellite

Ground track
Ground track

The orbit data is extracted from the following two-line orbital elements,

1 43446U 18036F   21332.19420071 -.00000176  00000-0  00000+0 0  9998
2 43446   3.0402  85.3513 0007869 100.3194 227.4228  1.02122314  9928
Epoch (UTC): 28 November 2021 04:39:38
Eccentricity: 0.0007869
inclination: 3.0402°
perigee height: 35242 km
apogee height: 35308 km
right ascension of ascending node: 85.3513°
argument of perigee: 100.3194°
revolutions per day: 1.02122314
mean anomaly at epoch: 227.4228°
orbit number at epoch: 992

The dashed part of the orbit path shows where the satellite is in the earth's shadow,  

DLR